Location: Little Chesterford
(52.0500°N, 0.1833°E)
Time: 05:10:48
(UTC+00:00)

SL-8 Rocket - Pass Details

Date: 26 September 2023
Orbit: 957 x 990 km, 82.9° (Epoch: 29 November)

Event Time Altitude Azimuth Distance (km) Brightness Sun altitude
Rises 18:12:59 0° 350° (N) 3,678 7.2 -4.5°
Reaches altitude 10° 18:15:32 10° 354° (N) 2,732 6.5 -4.9°
Maximum altitude 18:21:46 66° 76° (ENE) 1,068 4.0 -5.9°
Drops below altitude 10° 18:28:00 10° 159° (SSE) 2,735 6.1 -6.8°
Sets 18:30:32 0° 162° (SSE) 3,683 6.8 -7.2°
